Location: Karcze
(52.0945°N, 22.4786°E)
Time: 02:18:53
(UTC+00:00)

A-11 Canister half - Pass Details

Date: 10 August 2021
Orbit: 1514 x 1685 km, 47.2° (Epoch: 16 September)

Event Time Altitude Azimuth Distance (km) Brightness Sun altitude
Rises 19:39:13 0° 287° (WNW) 4,870 12.8 -12.6°
Reaches altitude 10° 19:42:54 10° 276° (W) 3,903 11.9 -13.0°
Maximum altitude 19:50:48 28° 224° (SW) 2,787 10.3 -13.8°
Enters shadow 19:58:27 11° 172° (S) 3,860 10.6 -14.5°
Drops below altitude 10° 19:58:47 10° 171° (S) 3,942 - -14.5°
Sets 20:02:34 0° 160° (SSE) 4,927 - -14.9°
